When you browse on this site, cookies collect data to enhance your experience and personalize the content and advertising you see.
Visit our Privacy Policy to learn more. By continuing to use the site, you agree to this use of cookies and data.
  • In Romania
  • List of Countries
  • For 7 days
  • Water Temperature
  • Weather Map
  • Weather Widgets
  • user-avatar
    Login

    Hourly Weather Sochaczew

    Today, 7 December, Saturday

    Time Temperature Precipitation Wind Pressure Humidity
    00:00 -2°C° 0 mm 6 mps 749 mmHg 55%
    01:00 -1°C° 0 mm 5 mps 748 mmHg 56%
    02:00 -1°C° 0 mm 5 mps 748 mmHg 56%
    03:00 -2°C° 0 mm 6 mps 747 mmHg 57%
    04:00 -2°C° 0 mm 6 mps 746 mmHg 58%
    05:00 -1°C° 0 mm 6 mps 746 mmHg 58%
    06:00 0°C° 0 mm 7 mps 746 mmHg 58%
    07:00 0°C° 0 mm 7 mps 746 mmHg 59%
    08:00 +2°C° 0.2 mm 7 mps 746 mmHg 68%
    09:00 +1°C° 0.2 mm 8 mps 746 mmHg 76%
    10:00 +1°C° 0.2 mm 8 mps 745 mmHg 85%
    11:00 +2°C° 0 mm 8 mps 745 mmHg 83%
    12:00 +4°C° 0 mm 8 mps 745 mmHg 81%
    13:00 +5°C° 0 mm 8 mps 745 mmHg 79%
    14:00 +5°C° 0.3 mm 8 mps 745 mmHg 82%
    15:00 +5°C° 0.3 mm 8 mps 745 mmHg 85%
    16:00 +5°C° 0.3 mm 8 mps 745 mmHg 88%
    17:00 +5°C° 0.1 mm 8 mps 746 mmHg 87%
    18:00 +5°C° 0.1 mm 7 mps 746 mmHg 86%
    19:00 +5°C° 0.1 mm 7 mps 747 mmHg 86%
    20:00 +5°C° 0.4 mm 7 mps 747 mmHg 87%
    21:00 +5°C° 0.4 mm 7 mps 747 mmHg 88%
    22:00 +5°C° 0.4 mm 6 mps 747 mmHg 89%
    23:00 +5°C° 0.5 mm 6 mps 748 mmHg 87%

    Tomorrow, 8 December, Sunday

    Time Temperature Precipitation Wind Pressure Humidity
    00:00 +5°C° 0.5 mm 6 mps 748 mmHg 84%
    01:00 +5°C° 0.5 mm 6 mps 748 mmHg 82%
    02:00 +4°C° 0.1 mm 6 mps 748 mmHg 84%
    03:00 +5°C° 0.1 mm 5 mps 748 mmHg 87%
    04:00 +5°C° 0.1 mm 5 mps 748 mmHg 89%
    05:00 +5°C° 0.2 mm 5 mps 748 mmHg 87%
    06:00 +4°C° 0.2 mm 6 mps 749 mmHg 85%
    07:00 +4°C° 0.2 mm 6 mps 749 mmHg 84%
    08:00 +4°C° 0 mm 6 mps 749 mmHg 82%
    09:00 +5°C° 0 mm 7 mps 748 mmHg 81%
    10:00 +5°C° 0 mm 7 mps 748 mmHg 80%
    11:00 +5°C° 0 mm 7 mps 748 mmHg 77%
    12:00 +5°C° 0 mm 7 mps 747 mmHg 74%
    13:00 +5°C° 0 mm 7 mps 747 mmHg 71%
    14:00 +5°C° 0 mm 7 mps 746 mmHg 71%
    15:00 +5°C° 0 mm 7 mps 745 mmHg 72%
    16:00 +5°C° 0 mm 6 mps 745 mmHg 72%
    17:00 +5°C° 0 mm 7 mps 744 mmHg 72%
    18:00 +5°C° 0 mm 7 mps 744 mmHg 71%
    19:00 +6°C° 0 mm 7 mps 744 mmHg 70%
    20:00 +6°C° 0.1 mm 8 mps 743 mmHg 74%
    21:00 +6°C° 0.1 mm 8 mps 743 mmHg 78%
    22:00 +6°C° 0.1 mm 8 mps 742 mmHg 83%
    23:00 +6°C° 0 mm 8 mps 742 mmHg 82%

    Day after tomorrow, 9 December, Monday

    Time Temperature Precipitation Wind Pressure Humidity
    00:00 +6°C° 0 mm 7 mps 742 mmHg 81%
    01:00 +6°C° 0 mm 7 mps 742 mmHg 81%
    02:00 +6°C° 0.4 mm 7 mps 741 mmHg 83%
    03:00 +6°C° 0.4 mm 7 mps 741 mmHg 85%
    04:00 +5°C° 0.4 mm 7 mps 741 mmHg 87%
    05:00 +7°C° 0.5 mm 6 mps 741 mmHg 84%
    06:00 +7°C° 0.5 mm 6 mps 741 mmHg 82%
    07:00 +7°C° 0.5 mm 6 mps 741 mmHg 79%
    08:00 +7°C° 0 mm 6 mps 741 mmHg 75%
    09:00 +7°C° 0 mm 6 mps 741 mmHg 72%
    10:00 +7°C° 0 mm 6 mps 742 mmHg 68%
    11:00 +7°C° 0 mm 6 mps 742 mmHg 66%
    12:00 +7°C° 0 mm 6 mps 741 mmHg 64%
    13:00 +7°C° 0 mm 5 mps 741 mmHg 62%
    14:00 +7°C° 0 mm 5 mps 741 mmHg 64%
    15:00 +7°C° 0 mm 5 mps 741 mmHg 65%
    16:00 +6°C° 0 mm 5 mps 741 mmHg 67%
    17:00 +6°C° 0 mm 5 mps 741 mmHg 68%
    18:00 +5°C° 0 mm 5 mps 741 mmHg 70%
    19:00 +5°C° 0 mm 5 mps 741 mmHg 72%
    20:00 +4°C° 0 mm 6 mps 741 mmHg 73%
    21:00 +4°C° 0 mm 6 mps 741 mmHg 74%
    22:00 +4°C° 0 mm 6 mps 742 mmHg 75%
    23:00 +4°C° 0 mm 6 mps 742 mmHg 76%

    10 December, Tuesday

    Time Temperature Precipitation Wind Pressure Humidity
    00:00 +4°C° 0 mm 6 mps 742 mmHg 78%
    01:00 +4°C° 0 mm 6 mps 742 mmHg 79%
    02:00 +4°C° 0 mm 6 mps 743 mmHg 79%
    03:00 +4°C° 0 mm 6 mps 743 mmHg 79%
    04:00 +3°C° 0 mm 6 mps 743 mmHg 79%
    05:00 +4°C° 0.1 mm 6 mps 744 mmHg 80%
    06:00 +4°C° 0.1 mm 6 mps 745 mmHg 81%
    07:00 +4°C° 0.1 mm 6 mps 745 mmHg 83%
    08:00 +4°C° 0.1 mm 7 mps 746 mmHg 80%
    09:00 +2°C° 0.1 mm 8 mps 747 mmHg 78%
    10:00 +2°C° 0.1 mm 8 mps 748 mmHg 75%
    11:00 +2°C° 0 mm 8 mps 748 mmHg 74%
    12:00 +2°C° 0 mm 8 mps 749 mmHg 74%
    13:00 +2°C° 0 mm 8 mps 750 mmHg 73%
    14:00 +3°C° 0.3 mm 7 mps 751 mmHg 77%
    15:00 +2°C° 0.3 mm 6 mps 752 mmHg 80%
    16:00 +2°C° 0.3 mm 6 mps 753 mmHg 84%
    17:00 +2°C° 0 mm 5 mps 754 mmHg 79%
    18:00 +1°C° 0 mm 5 mps 755 mmHg 75%
    19:00 0°C° 0 mm 4 mps 756 mmHg 70%
    20:00 +1°C° 0 mm 3 mps 757 mmHg 73%
    21:00 0°C° 0 mm 3 mps 758 mmHg 75%
    22:00 -1°C° 0 mm 2 mps 758 mmHg 78%
    23:00 -1°C° 0 mm 2 mps 759 mmHg 78%

    11 December, Wednesday

    Time Temperature Precipitation Wind Pressure Humidity
    00:00 +1°C° 0 mm 1 mps 759 mmHg 79%
    01:00 +1°C° 0 mm 1 mps 759 mmHg 79%
    02:00 +1°C° 0 mm 1 mps 759 mmHg 79%
    03:00 0°C° 0 mm 1 mps 759 mmHg 78%
    04:00 -1°C° 0 mm 0 mps 759 mmHg 78%
    05:00 0°C° 0 mm 1 mps 759 mmHg 77%
    06:00 -2°C° 0 mm 2 mps 759 mmHg 77%
    07:00 -2°C° 0 mm 2 mps 759 mmHg 77%
    08:00 -1°C° 0 mm 3 mps 758 mmHg 72%
    09:00 -2°C° 0 mm 4 mps 758 mmHg 67%
    10:00 -1°C° 0 mm 5 mps 758 mmHg 63%
    11:00 0°C° 0 mm 5 mps 758 mmHg 61%
    12:00 0°C° 0 mm 5 mps 757 mmHg 59%
    13:00 +1°C° 0 mm 5 mps 756 mmHg 56%
    14:00 0°C° 0 mm 5 mps 756 mmHg 61%
    15:00 0°C° 0 mm 5 mps 756 mmHg 65%
    16:00 -1°C° 0 mm 4 mps 755 mmHg 69%
    17:00 -1°C° 0 mm 4 mps 755 mmHg 72%
    18:00 -1°C° 0 mm 5 mps 755 mmHg 75%
    19:00 -1°C° 0 mm 5 mps 754 mmHg 78%
    20:00 -2°C° 0 mm 4 mps 754 mmHg 79%
    21:00 -2°C° 0 mm 4 mps 754 mmHg 81%
    22:00 -2°C° 0 mm 4 mps 754 mmHg 83%
    23:00 -2°C° 0 mm 4 mps 753 mmHg 83%

    12 December, Thursday

    Time Temperature Precipitation Wind Pressure Humidity
    00:00 -1°C° 0 mm 3 mps 753 mmHg 84%
    01:00 -1°C° 0 mm 3 mps 753 mmHg 85%
    02:00 -1°C° 0 mm 3 mps 752 mmHg 85%
    03:00 -1°C° 0 mm 3 mps 752 mmHg 85%
    04:00 -1°C° 0 mm 3 mps 752 mmHg 85%
    05:00 -1°C° 0 mm 3 mps 751 mmHg 82%
    06:00 0°C° 0 mm 3 mps 751 mmHg 79%
    07:00 0°C° 0 mm 3 mps 751 mmHg 76%
    08:00 0°C° 0 mm 4 mps 751 mmHg 73%
    09:00 0°C° 0 mm 4 mps 751 mmHg 70%
    10:00 +1°C° 0 mm 4 mps 751 mmHg 67%
    11:00 +1°C° 0 mm 4 mps 751 mmHg 69%
    12:00 +2°C° 0 mm 3 mps 751 mmHg 70%
    13:00 +3°C° 0 mm 3 mps 750 mmHg 71%
    14:00 +2°C° 0 mm 3 mps 750 mmHg 75%
    15:00 +2°C° 0 mm 2 mps 750 mmHg 80%
    16:00 +1°C° 0 mm 2 mps 750 mmHg 84%
    17:00 +1°C° 0 mm 2 mps 750 mmHg 85%
    18:00 +1°C° 0 mm 2 mps 750 mmHg 85%
    19:00 +1°C° 0 mm 2 mps 749 mmHg 85%
    20:00 +1°C° 0 mm 2 mps 749 mmHg 85%
    21:00 +1°C° 0 mm 2 mps 749 mmHg 86%
    22:00 +1°C° 0 mm 2 mps 748 mmHg 86%
    23:00 +1°C° 0 mm 2 mps 747 mmHg 87%
    Show more